<?xml version="1.0" encoding="UTF-8" standalone="no" ?>
<gpx xmlns="http://www.topografix.com/GPX/1/1" xmlns:xsi="http://www.w3.org/2001/XMLSchema-instance" xsi:schemaLocation="http://www.topografix.com/GPX/1/1 http://www.topografix.com/GPX/1/1/gpx.xsd" version="1.1" creator="VisuGPX - https://www.visugpx.com">
  <metadata>
    <name>vtt puget</name>
    <desc><![CDATA[ballade puget]]></desc>
  </metadata>
  <trk>
    <name><![CDATA[Forêt domaniale de la Colle du Rouet - 1059 - UtagawaVTT.com]]></name>
    <trkseg>
      <trkpt lat="43.4593" lon="6.67673">
        <ele>17</ele>
        <time>2006-05-07T18:41:40Z</time>
      </trkpt>
      <trkpt lat="43.46" lon="6.67507">
        <ele>8</ele>
        <time>2006-05-07T18:41:40Z</time>
      </trkpt>
      <trkpt lat="43.4611" lon="6.67411">
        <ele>13</ele>
        <time>2006-05-07T18:41:40Z</time>
      </trkpt>
      <trkpt lat="43.46335" lon="6.67029">
        <ele>16</ele>
        <time>2006-05-07T18:41:40Z</time>
      </trkpt>
      <trkpt lat="43.46397" lon="6.67106">
        <ele>16</ele>
        <time>2006-05-07T18:41:40Z</time>
      </trkpt>
      <trkpt lat="43.46297" lon="6.6711">
        <ele>30</ele>
        <time>2006-05-07T18:41:40Z</time>
      </trkpt>
      <trkpt lat="43.46488" lon="6.66945">
        <ele>30</ele>
        <time>2006-05-07T18:41:40Z</time>
      </trkpt>
      <trkpt lat="43.46726" lon="6.66673">
        <ele>23</ele>
        <time>2006-05-07T18:41:40Z</time>
      </trkpt>
      <trkpt lat="43.46857" lon="6.66975">
        <ele>22</ele>
        <time>2006-05-07T18:41:40Z</time>
      </trkpt>
      <trkpt lat="43.46947" lon="6.67046">
        <ele>24</ele>
        <time>2006-05-07T18:41:40Z</time>
      </trkpt>
      <trkpt lat="43.4696" lon="6.6699">
        <ele>24</ele>
        <time>2006-05-07T18:41:40Z</time>
      </trkpt>
      <trkpt lat="43.47035" lon="6.67003">
        <ele>27</ele>
        <time>2006-05-07T18:41:40Z</time>
      </trkpt>
      <trkpt lat="43.47123" lon="6.67454">
        <ele>33</ele>
        <time>2006-05-07T18:41:40Z</time>
      </trkpt>
      <trkpt lat="43.47324" lon="6.67432">
        <ele>45</ele>
        <time>2006-05-07T18:41:40Z</time>
      </trkpt>
      <trkpt lat="43.47329" lon="6.67552">
        <ele>45</ele>
        <time>2006-05-07T18:41:40Z</time>
      </trkpt>
      <trkpt lat="43.47292" lon="6.67591">
        <ele>45</ele>
        <time>2006-05-07T18:41:40Z</time>
      </trkpt>
      <trkpt lat="43.47796" lon="6.67552">
        <ele>53</ele>
        <time>2006-05-07T18:41:40Z</time>
      </trkpt>
      <trkpt lat="43.47996" lon="6.67443">
        <ele>69</ele>
        <time>2006-05-07T18:41:40Z</time>
      </trkpt>
      <trkpt lat="43.48135" lon="6.67437">
        <ele>70</ele>
        <time>2006-05-07T18:41:40Z</time>
      </trkpt>
      <trkpt lat="43.48253" lon="6.67529">
        <ele>74</ele>
        <time>2006-05-07T18:41:40Z</time>
      </trkpt>
      <trkpt lat="43.48384" lon="6.67741">
        <ele>78</ele>
        <time>2006-05-07T18:41:40Z</time>
      </trkpt>
      <trkpt lat="43.4852" lon="6.67765">
        <ele>82</ele>
        <time>2006-05-07T18:41:40Z</time>
      </trkpt>
      <trkpt lat="43.48483" lon="6.68046">
        <ele>77</ele>
        <time>2006-05-07T18:41:40Z</time>
      </trkpt>
      <trkpt lat="43.48567" lon="6.68005">
        <ele>76</ele>
        <time>2006-05-07T18:41:40Z</time>
      </trkpt>
      <trkpt lat="43.48811" lon="6.68128">
        <ele>73</ele>
        <time>2006-05-07T18:41:40Z</time>
      </trkpt>
      <trkpt lat="43.48921" lon="6.68093">
        <ele>73</ele>
        <time>2006-05-07T18:41:40Z</time>
      </trkpt>
      <trkpt lat="43.49144" lon="6.68424">
        <ele>68</ele>
        <time>2006-05-07T18:41:40Z</time>
      </trkpt>
      <trkpt lat="43.49283" lon="6.68299">
        <ele>66</ele>
        <time>2006-05-07T18:41:40Z</time>
      </trkpt>
      <trkpt lat="43.49459" lon="6.67979">
        <ele>70</ele>
        <time>2006-05-07T18:41:40Z</time>
      </trkpt>
      <trkpt lat="43.49322" lon="6.67761">
        <ele>76</ele>
        <time>2006-05-07T18:41:40Z</time>
      </trkpt>
      <trkpt lat="43.49251" lon="6.67495">
        <ele>69</ele>
        <time>2006-05-07T18:41:40Z</time>
      </trkpt>
      <trkpt lat="43.49176" lon="6.67653">
        <ele>70</ele>
        <time>2006-05-07T18:41:40Z</time>
      </trkpt>
      <trkpt lat="43.49073" lon="6.6775">
        <ele>70</ele>
        <time>2006-05-07T18:41:40Z</time>
      </trkpt>
      <trkpt lat="43.48977" lon="6.67668">
        <ele>68</ele>
        <time>2006-05-07T18:41:40Z</time>
      </trkpt>
      <trkpt lat="43.49069" lon="6.67507">
        <ele>70</ele>
        <time>2006-05-07T18:41:40Z</time>
      </trkpt>
      <trkpt lat="43.49069" lon="6.6719">
        <ele>75</ele>
        <time>2006-05-07T18:41:40Z</time>
      </trkpt>
      <trkpt lat="43.48846" lon="6.67053">
        <ele>79</ele>
        <time>2006-05-07T18:41:40Z</time>
      </trkpt>
      <trkpt lat="43.48799" lon="6.66911">
        <ele>81</ele>
        <time>2006-05-07T18:41:40Z</time>
      </trkpt>
      <trkpt lat="43.48811" lon="6.66733">
        <ele>81</ele>
        <time>2006-05-07T18:41:40Z</time>
      </trkpt>
      <trkpt lat="43.48882" lon="6.66615">
        <ele>80</ele>
        <time>2006-05-07T18:41:40Z</time>
      </trkpt>
      <trkpt lat="43.48917" lon="6.6643">
        <ele>77</ele>
        <time>2006-05-07T18:41:40Z</time>
      </trkpt>
      <trkpt lat="43.48889" lon="6.66291">
        <ele>74</ele>
        <time>2006-05-07T18:41:40Z</time>
      </trkpt>
      <trkpt lat="43.49007" lon="6.66379">
        <ele>73</ele>
        <time>2006-05-07T18:41:40Z</time>
      </trkpt>
      <trkpt lat="43.49075" lon="6.66329">
        <ele>73</ele>
        <time>2006-05-07T18:41:40Z</time>
      </trkpt>
      <trkpt lat="43.49017" lon="6.66209">
        <ele>70</ele>
        <time>2006-05-07T18:41:40Z</time>
      </trkpt>
      <trkpt lat="43.49123" lon="6.65947">
        <ele>67</ele>
        <time>2006-05-07T18:41:40Z</time>
      </trkpt>
      <trkpt lat="43.49206" lon="6.6593">
        <ele>69</ele>
        <time>2006-05-07T18:41:40Z</time>
      </trkpt>
      <trkpt lat="43.49365" lon="6.66055">
        <ele>78</ele>
        <time>2006-05-07T18:41:40Z</time>
      </trkpt>
      <trkpt lat="43.49432" lon="6.66503">
        <ele>80</ele>
        <time>2006-05-07T18:41:40Z</time>
      </trkpt>
      <trkpt lat="43.49545" lon="6.66574">
        <ele>85</ele>
        <time>2006-05-07T18:41:40Z</time>
      </trkpt>
      <trkpt lat="43.49597" lon="6.66709">
        <ele>83</ele>
        <time>2006-05-07T18:41:40Z</time>
      </trkpt>
      <trkpt lat="43.49777" lon="6.66499">
        <ele>76</ele>
        <time>2006-05-07T18:41:40Z</time>
      </trkpt>
      <trkpt lat="43.49925" lon="6.6652">
        <ele>73</ele>
        <time>2006-05-07T18:41:40Z</time>
      </trkpt>
      <trkpt lat="43.4982" lon="6.6705">
        <ele>72</ele>
        <time>2006-05-07T18:41:40Z</time>
      </trkpt>
      <trkpt lat="43.49741" lon="6.67074">
        <ele>77</ele>
        <time>2006-05-07T18:41:40Z</time>
      </trkpt>
      <trkpt lat="43.49889" lon="6.67415">
        <ele>86</ele>
        <time>2006-05-07T18:41:40Z</time>
      </trkpt>
      <trkpt lat="43.50127" lon="6.67514">
        <ele>91</ele>
        <time>2006-05-07T18:41:40Z</time>
      </trkpt>
      <trkpt lat="43.50152" lon="6.67447">
        <ele>91</ele>
        <time>2006-05-07T18:41:40Z</time>
      </trkpt>
      <trkpt lat="43.50217" lon="6.67462">
        <ele>89</ele>
        <time>2006-05-07T18:41:40Z</time>
      </trkpt>
      <trkpt lat="43.50331" lon="6.67351">
        <ele>85</ele>
        <time>2006-05-07T18:41:40Z</time>
      </trkpt>
      <trkpt lat="43.50404" lon="6.67117">
        <ele>81</ele>
        <time>2006-05-07T18:41:40Z</time>
      </trkpt>
      <trkpt lat="43.50507" lon="6.67063">
        <ele>85</ele>
        <time>2006-05-07T18:41:40Z</time>
      </trkpt>
      <trkpt lat="43.50592" lon="6.67108">
        <ele>85</ele>
        <time>2006-05-07T18:41:40Z</time>
      </trkpt>
      <trkpt lat="43.50762" lon="6.67346">
        <ele>101</ele>
        <time>2006-05-07T18:41:40Z</time>
      </trkpt>
      <trkpt lat="43.50736" lon="6.67653">
        <ele>106</ele>
        <time>2006-05-07T18:41:40Z</time>
      </trkpt>
      <trkpt lat="43.50354" lon="6.6887">
        <ele>96</ele>
        <time>2006-05-07T18:41:40Z</time>
      </trkpt>
      <trkpt lat="43.50389" lon="6.68919">
        <ele>97</ele>
        <time>2006-05-07T18:41:40Z</time>
      </trkpt>
      <trkpt lat="43.50358" lon="6.69059">
        <ele>94</ele>
        <time>2006-05-07T18:41:40Z</time>
      </trkpt>
      <trkpt lat="43.50047" lon="6.69381">
        <ele>86</ele>
        <time>2006-05-07T18:41:40Z</time>
      </trkpt>
      <trkpt lat="43.49856" lon="6.69657">
        <ele>80</ele>
        <time>2006-05-07T18:41:40Z</time>
      </trkpt>
      <trkpt lat="43.4944" lon="6.6961">
        <ele>77</ele>
        <time>2006-05-07T18:41:40Z</time>
      </trkpt>
      <trkpt lat="43.49322" lon="6.69544">
        <ele>78</ele>
        <time>2006-05-07T18:41:40Z</time>
      </trkpt>
      <trkpt lat="43.49095" lon="6.69866">
        <ele>78</ele>
        <time>2006-05-07T18:41:40Z</time>
      </trkpt>
      <trkpt lat="43.4903" lon="6.69889">
        <ele>78</ele>
        <time>2006-05-07T18:41:40Z</time>
      </trkpt>
      <trkpt lat="43.48934" lon="6.69748">
        <ele>75</ele>
        <time>2006-05-07T18:41:40Z</time>
      </trkpt>
      <trkpt lat="43.48854" lon="6.6976">
        <ele>70</ele>
        <time>2006-05-07T18:41:40Z</time>
      </trkpt>
      <trkpt lat="43.48777" lon="6.69842">
        <ele>71</ele>
        <time>2006-05-07T18:41:40Z</time>
      </trkpt>
      <trkpt lat="43.48661" lon="6.69825">
        <ele>74</ele>
        <time>2006-05-07T18:41:40Z</time>
      </trkpt>
      <trkpt lat="43.48537" lon="6.70003">
        <ele>72</ele>
        <time>2006-05-07T18:41:40Z</time>
      </trkpt>
      <trkpt lat="43.48369" lon="6.70104">
        <ele>54</ele>
        <time>2006-05-07T18:41:40Z</time>
      </trkpt>
      <trkpt lat="43.47537" lon="6.70074">
        <ele>48</ele>
        <time>2006-05-07T18:41:40Z</time>
      </trkpt>
      <trkpt lat="43.47487" lon="6.70057">
        <ele>47</ele>
        <time>2006-05-07T18:41:40Z</time>
      </trkpt>
      <trkpt lat="43.47468" lon="6.69994">
        <ele>46</ele>
        <time>2006-05-07T18:41:40Z</time>
      </trkpt>
      <trkpt lat="43.47522" lon="6.69771">
        <ele>39</ele>
        <time>2006-05-07T18:41:40Z</time>
      </trkpt>
      <trkpt lat="43.47277" lon="6.69589">
        <ele>43</ele>
        <time>2006-05-07T18:41:40Z</time>
      </trkpt>
      <trkpt lat="43.47372" lon="6.69441">
        <ele>47</ele>
        <time>2006-05-07T18:41:40Z</time>
      </trkpt>
      <trkpt lat="43.4738" lon="6.69278">
        <ele>50</ele>
        <time>2006-05-07T18:41:40Z</time>
      </trkpt>
      <trkpt lat="43.47904" lon="6.69333">
        <ele>53</ele>
        <time>2006-05-07T18:41:40Z</time>
      </trkpt>
      <trkpt lat="43.48011" lon="6.69166">
        <ele>70</ele>
        <time>2006-05-07T18:41:40Z</time>
      </trkpt>
      <trkpt lat="43.47968" lon="6.69091">
        <ele>74</ele>
        <time>2006-05-07T18:41:40Z</time>
      </trkpt>
      <trkpt lat="43.4802" lon="6.68896">
        <ele>69</ele>
        <time>2006-05-07T18:41:40Z</time>
      </trkpt>
      <trkpt lat="43.48116" lon="6.68748">
        <ele>69</ele>
        <time>2006-05-07T18:41:40Z</time>
      </trkpt>
      <trkpt lat="43.48215" lon="6.68683">
        <ele>73</ele>
        <time>2006-05-07T18:41:40Z</time>
      </trkpt>
      <trkpt lat="43.48256" lon="6.68222">
        <ele>66</ele>
        <time>2006-05-07T18:41:40Z</time>
      </trkpt>
      <trkpt lat="43.48114" lon="6.68254">
        <ele>63</ele>
        <time>2006-05-07T18:41:40Z</time>
      </trkpt>
      <trkpt lat="43.47979" lon="6.68198">
        <ele>54</ele>
        <time>2006-05-07T18:41:40Z</time>
      </trkpt>
      <trkpt lat="43.47953" lon="6.68098">
        <ele>50</ele>
        <time>2006-05-07T18:41:40Z</time>
      </trkpt>
      <trkpt lat="43.47882" lon="6.68046">
        <ele>49</ele>
        <time>2006-05-07T18:41:40Z</time>
      </trkpt>
      <trkpt lat="43.4788" lon="6.67864">
        <ele>53</ele>
        <time>2006-05-07T18:41:40Z</time>
      </trkpt>
      <trkpt lat="43.47773" lon="6.67922">
        <ele>47</ele>
        <time>2006-05-07T18:41:40Z</time>
      </trkpt>
      <trkpt lat="43.47605" lon="6.67765">
        <ele>52</ele>
        <time>2006-05-07T18:41:40Z</time>
      </trkpt>
      <trkpt lat="43.4746" lon="6.6778">
        <ele>50</ele>
        <time>2006-05-07T18:41:40Z</time>
      </trkpt>
      <trkpt lat="43.47312" lon="6.67919">
        <ele>45</ele>
        <time>2006-05-07T18:41:40Z</time>
      </trkpt>
      <trkpt lat="43.4723" lon="6.67849">
        <ele>46</ele>
        <time>2006-05-07T18:41:40Z</time>
      </trkpt>
      <trkpt lat="43.47114" lon="6.67945">
        <ele>46</ele>
        <time>2006-05-07T18:41:40Z</time>
      </trkpt>
      <trkpt lat="43.47003" lon="6.67769">
        <ele>46</ele>
        <time>2006-05-07T18:41:40Z</time>
      </trkpt>
      <trkpt lat="43.46869" lon="6.67692">
        <ele>39</ele>
        <time>2006-05-07T18:41:40Z</time>
      </trkpt>
      <trkpt lat="43.46758" lon="6.67467">
        <ele>41</ele>
        <time>2006-05-07T18:41:40Z</time>
      </trkpt>
      <trkpt lat="43.46618" lon="6.67557">
        <ele>41</ele>
        <time>2006-05-07T18:41:40Z</time>
      </trkpt>
      <trkpt lat="43.46657" lon="6.67658">
        <ele>40</ele>
        <time>2006-05-07T18:41:40Z</time>
      </trkpt>
      <trkpt lat="43.46608" lon="6.67939">
        <ele>37</ele>
        <time>2006-05-07T18:41:40Z</time>
      </trkpt>
      <trkpt lat="43.46352" lon="6.68115">
        <ele>29</ele>
        <time>2006-05-07T18:41:40Z</time>
      </trkpt>
      <trkpt lat="43.46221" lon="6.68456">
        <ele>28</ele>
        <time>2006-05-07T18:41:40Z</time>
      </trkpt>
      <trkpt lat="43.46144" lon="6.68507">
        <ele>28</ele>
        <time>2006-05-07T18:41:40Z</time>
      </trkpt>
      <trkpt lat="43.45992" lon="6.68404">
        <ele>-12</ele>
        <time>2006-05-07T18:41:40Z</time>
      </trkpt>
      <trkpt lat="43.45992" lon="6.68403">
        <ele>30</ele>
        <time>2006-05-07T18:41:40Z</time>
      </trkpt>
      <trkpt lat="43.46051" lon="6.68392">
        <ele>26</ele>
        <time>2006-05-07T18:41:40Z</time>
      </trkpt>
      <trkpt lat="43.46085" lon="6.6833">
        <ele>24</ele>
        <time>2006-05-07T18:41:40Z</time>
      </trkpt>
      <trkpt lat="43.46086" lon="6.68299">
        <ele>24</ele>
        <time>2006-05-07T18:41:40Z</time>
      </trkpt>
      <trkpt lat="43.46078" lon="6.68274">
        <ele>24</ele>
        <time>2006-05-07T18:41:40Z</time>
      </trkpt>
      <trkpt lat="43.46071" lon="6.68184">
        <ele>23</ele>
        <time>2006-05-07T18:41:40Z</time>
      </trkpt>
      <trkpt lat="43.46062" lon="6.68115">
        <ele>21</ele>
        <time>2006-05-07T18:41:40Z</time>
      </trkpt>
      <trkpt lat="43.46071" lon="6.68005">
        <ele>15</ele>
        <time>2006-05-07T18:41:40Z</time>
      </trkpt>
      <trkpt lat="43.46028" lon="6.67958">
        <ele>15</ele>
        <time>2006-05-07T18:41:40Z</time>
      </trkpt>
      <trkpt lat="43.46003" lon="6.67901">
        <ele>12</ele>
        <time>2006-05-07T18:41:40Z</time>
      </trkpt>
      <trkpt lat="43.45983" lon="6.67847">
        <ele>11</ele>
        <time>2006-05-07T18:41:40Z</time>
      </trkpt>
      <trkpt lat="43.45982" lon="6.67711">
        <ele>7</ele>
        <time>2006-05-07T18:41:40Z</time>
      </trkpt>
      <trkpt lat="43.45927" lon="6.67672">
        <ele>7</ele>
        <time>2006-05-07T18:41:40Z</time>
      </trkpt>
    </trkseg>
  </trk>
</gpx>